Waarnemingen

Advertentie
Mijn weer
Granada/Aeropuerto, Spanje (8419): temperatuur & dauwpunt: 22.09.2020 20:00:00 - 28.09.2020 20:00:00 (CEST)Granada/Aeropuerto, Spanje (8419): windsnelheid: 22.09.2020 20:00:00 - 28.09.2020 20:00:00 (CEST)Granada/Aeropuerto, Spanje (8419): windrichting: 22.09.2020 20:00:00 - 28.09.2020 20:00:00 (CEST)Granada/Aeropuerto, Spanje (8419): luchtdruk: 22.09.2020 20:00:00 - 28.09.2020 20:00:00 (CEST)Granada/Aeropuerto, Spanje (8419): zicht: 22.09.2020 20:00:00 - 28.09.2020 20:00:00 (CEST)
Datum & Tijd tt [°C] td [°C] ff [km/u] ff [kn] dd ppp [hPa] vv [km]
28.09.2020 20:00:00 24,2 9,4 8 4 ZZO 1012,9 30
28.09.2020 19:00:00 28,9 4,6 0 0 N 1011,3 30
28.09.2020 18:00:00 28,8 4,3 4 2 N 1011,3 30
28.09.2020 17:00:00 29,1 4,5 4 2 W 1011,5 30
28.09.2020 16:00:00 28,0 6,1 2 1 NW 1012,1 28
28.09.2020 15:00:00 27,6 6,9 8 4 WZW 1013,2 30
28.09.2020 14:00:00 25,9 6,6 5 3 WNW 1014,5 30
28.09.2020 13:00:00 23,8 7,3 4 2 NW 1015,2 24
28.09.2020 12:00:00 - - 4 2 N - 30
28.09.2020 11:00:00 17,6 7,2 0 0 N 1017,3 30
28.09.2020 10:00:00 12,4 6,9 4 2 NW 1018,4 26
28.09.2020 09:00:00 9,0 5,7 0 0 N 1018,5 30
28.09.2020 08:00:00 7,5 4,5 0 0 N 1018,5 30
28.09.2020 07:00:00 8,0 4,9 4 2 Z 1018,0 30
28.09.2020 06:00:00 8,8 5,1 0 0 N 1017,7 30
28.09.2020 05:00:00 9,5 5,2 4 2 ZW 1017,3 30
28.09.2020 04:00:00 10,1 5,3 2 1 W 1017,4 30
28.09.2020 03:00:00 11,9 6,1 2 1 O 1017,2 30
28.09.2020 02:00:00 12,2 5,8 8 4 WZW 1017,0 30
28.09.2020 01:00:00 13,6 5,8 0 0 N 1016,5 30
28.09.2020 00:00:00 15,0 6,0 0 0 N 1015,9 30
27.09.2020 23:00:00 16,5 6,3 11 6 ZZW 1015,0 30
27.09.2020 22:00:00 18,6 7,1 4 2 ZZW 1014,0 30
27.09.2020 21:00:00 20,4 7,4 5 3 NW 1012,6 30
27.09.2020 20:00:00 22,2 8,1 5 3 NW 1011,6 30
27.09.2020 19:00:00 25,3 8,2 16 9 NW 1010,3 30
27.09.2020 18:00:00 26,5 8,3 18 10 WNW 1009,7 30
27.09.2020 17:00:00 26,8 9,3 18 10 WNW 1009,5 30
27.09.2020 16:00:00 26,4 7,7 15 8 WNW 1009,7 30
27.09.2020 15:00:00 26,0 7,6 13 7 WNW 1010,6 30
27.09.2020 14:00:00 24,6 7,3 4 2 ONO 1011,6 30
27.09.2020 13:00:00 23,0 7,1 4 2 NNO 1012,3 30
27.09.2020 12:00:00 20,6 8,6 5 3 WZW 1013,3 30
27.09.2020 11:00:00 18,5 8,4 8 4 WZW 1014,3 30
27.09.2020 10:00:00 16,1 6,8 4 2 ZW 1014,4 30
27.09.2020 09:00:00 11,0 5,1 0 0 N 1015,5 25
27.09.2020 08:00:00 9,2 3,9 4 2 Z 1015,8 25
27.09.2020 07:00:00 9,7 3,4 4 2 Z 1015,7 30
27.09.2020 06:00:00 10,4 4,1 0 0 N 1015,4 30
27.09.2020 05:00:00 12,0 3,9 5 3 Z 1015,3 30
27.09.2020 04:00:00 13,5 3,3 4 2 ZZW 1015,5 30
27.09.2020 03:00:00 13,6 4,4 4 2 ZZW 1016,0 30
27.09.2020 02:00:00 14,3 4,3 0 0 N 1016,4 30
27.09.2020 01:00:00 15,5 4,4 0 0 N 1016,5 30
27.09.2020 00:00:00 14,5 4,9 2 1 ZW 1017,1 30
26.09.2020 23:00:00 16,4 5,4 4 2 ZO 1016,9 30
26.09.2020 22:00:00 18,9 4,3 4 2 NW 1016,4 30
26.09.2020 21:00:00 20,1 4,9 13 7 WNW 1015,9 30
26.09.2020 20:00:00 21,8 4,2 13 7 N 1015,2 30
26.09.2020 19:00:00 23,5 3,9 18 10 N 1014,5 30
26.09.2020 18:00:00 25,7 3,6 16 9 NNW 1013,7 30
26.09.2020 17:00:00 26,3 2,6 15 8 NW 1013,8 30
26.09.2020 16:00:00 26,4 4,8 5 3 WZW 1014,5 30
26.09.2020 15:00:00 25,2 4,3 8 4 W 1016,0 30
26.09.2020 14:00:00 23,4 4,8 4 2 W 1017,4 30
26.09.2020 13:00:00 22,3 3,9 0 0 N 1018,7 30
26.09.2020 12:00:00 18,8 4,2 2 1 NNW 1020,4 21
26.09.2020 11:00:00 16,1 4,5 0 0 N 1021,1 20
26.09.2020 10:00:00 13,3 3,8 0 0 N 1021,6 21
26.09.2020 09:00:00 9,3 3,7 0 0 N 1022,1 20
26.09.2020 08:00:00 7,4 2,7 2 1 W 1022,4 15
26.09.2020 07:00:00 8,2 3,2 5 3 ZW 1022,3 12
26.09.2020 06:00:00 8,1 3,2 2 1 W 1022,3 19
26.09.2020 05:00:00 9,3 3,2 0 0 N 1022,1 20
26.09.2020 04:00:00 10,1 3,1 4 2 ZW 1022,4 30
26.09.2020 03:00:00 11,5 3,6 0 0 N 1022,6 17
26.09.2020 02:00:00 13,4 3,2 0 0 N 1022,8 30
26.09.2020 01:00:00 14,4 3,2 13 7 WZW 1022,7 30
26.09.2020 00:00:00 15,7 3,8 8 4 Z 1022,6 18
25.09.2020 23:00:00 16,7 4,4 9 5 NNW 1022,4 30
25.09.2020 22:00:00 19,5 4,6 9 5 WNW 1021,4 30
25.09.2020 21:00:00 19,1 5,6 4 2 ZZW 1020,9 30
25.09.2020 20:00:00 21,6 5,5 9 5 NNW 1019,6 30
25.09.2020 19:00:00 23,8 4,2 18 10 N 1018,6 30
25.09.2020 18:00:00 25,3 2,0 16 9 NW 1018,0 30
25.09.2020 17:00:00 25,0 2,0 24 13 N 1018,1 25
25.09.2020 16:00:00 26,7 2,0 21 11 NW 1017,9 27
25.09.2020 15:00:00 25,9 7,5 16 9 W 1018,3 30
25.09.2020 14:00:00 25,7 9,6 16 9 W 1018,5 30
25.09.2020 13:00:00 24,3 11,2 4 2 W 1019,3 30
25.09.2020 12:00:00 22,0 12,7 5 3 W 1020,1 30
25.09.2020 11:00:00 21,1 14,3 11 6 W 1020,2 25
25.09.2020 10:00:00 18,5 14,6 0 0 N 1020,4 20
25.09.2020 09:00:00 15,9 14,1 0 0 N 1020,7 18
25.09.2020 08:00:00 15,0 13,2 0 0 N 1020,8 20
25.09.2020 07:00:00 16,1 13,2 0 0 N 1020,2 18
25.09.2020 06:00:00 16,7 13,4 0 0 N 1019,7 18
25.09.2020 05:00:00 18,3 13,6 5 3 ZW 1019,1 20
25.09.2020 04:00:00 19,2 13,4 4 2 W 1019,1 22
25.09.2020 03:00:00 20,2 13,4 4 2 W 1019,0 19
25.09.2020 02:00:00 21,1 13,5 2 1 ZZW 1018,9 21
25.09.2020 01:00:00 21,2 13,6 9 5 W 1018,9 20
25.09.2020 00:00:00 21,7 13,1 4 2 WZW 1018,8 17
24.09.2020 23:00:00 22,3 13,1 4 2 ZW 1018,7 30
24.09.2020 22:00:00 23,4 12,4 0 0 N 1018,5 24
24.09.2020 21:00:00 24,6 11,5 8 4 W 1017,5 19
24.09.2020 20:00:00 25,7 12,2 11 6 W 1016,4 30
24.09.2020 19:00:00 27,9 10,6 16 9 NW 1015,3 28
24.09.2020 18:00:00 28,7 11,3 18 10 NNW 1015,0 30
24.09.2020 17:00:00 29,3 12,2 22 12 W 1015,0 30
24.09.2020 16:00:00 28,5 12,1 15 8 W 1014,7 15
24.09.2020 15:00:00 28,8 13,1 4 2 N 1014,9 30
24.09.2020 14:00:00 28,8 13,9 5 3 WZW 1015,6 30
24.09.2020 13:00:00 26,4 14,7 5 3 W 1016,3 29
24.09.2020 12:00:00 24,0 14,8 2 1 WNW 1016,9 19
24.09.2020 11:00:00 20,7 14,8 0 0 N 1017,2 25
24.09.2020 10:00:00 17,6 14,7 0 0 N 1017,5 23
24.09.2020 09:00:00 16,5 14,5 2 1 NNW 1017,6 20
24.09.2020 08:00:00 16,1 13,7 2 1 W 1017,2 20
24.09.2020 07:00:00 15,8 13,3 4 2 W 1016,8 27
24.09.2020 06:00:00 15,6 13,1 4 2 ZW 1016,9 30
24.09.2020 05:00:00 16,0 12,9 0 0 N 1016,9 29
24.09.2020 04:00:00 15,8 12,9 0 0 N 1017,1 30
24.09.2020 03:00:00 17,0 13,1 0 0 N 1017,1 30
24.09.2020 02:00:00 18,1 13,3 2 1 Z 1017,3 30
24.09.2020 01:00:00 18,5 13,6 2 1 NNW 1016,9 30
24.09.2020 00:00:00 19,9 13,8 4 2 ZZW 1016,5 30
23.09.2020 23:00:00 20,3 13,7 4 2 WNW 1016,4 30
23.09.2020 22:00:00 20,4 13,6 8 4 Z 1016,1 26
23.09.2020 21:00:00 21,6 13,2 11 6 W 1015,0 27
23.09.2020 20:00:00 23,0 13,5 18 10 WNW 1013,8 28
23.09.2020 19:00:00 25,6 13,4 21 11 W 1013,1 30
23.09.2020 18:00:00 26,9 13,2 16 9 W 1012,3 24
23.09.2020 17:00:00 27,6 12,4 21 11 W 1012,3 30
23.09.2020 16:00:00 27,7 12,2 21 11 WNW 1012,5 30
23.09.2020 15:00:00 27,8 11,6 21 11 WNW 1012,7 30
23.09.2020 14:00:00 27,2 11,4 18 10 W 1013,2 30
23.09.2020 13:00:00 24,8 10,4 9 5 WNW 1014,1 27
23.09.2020 12:00:00 21,9 12,2 4 2 W 1015,3 26
23.09.2020 11:00:00 18,4 11,7 4 2 NNW 1015,8 26
23.09.2020 10:00:00 15,9 11,9 0 0 N 1016,1 18
23.09.2020 09:00:00 15,5 11,3 0 0 N 1016,7 26
23.09.2020 08:00:00 14,5 10,5 0 0 N 1016,7 30
23.09.2020 07:00:00 13,9 10,3 4 2 W 1016,5 23
23.09.2020 06:00:00 14,1 10,1 0 0 N 1016,2 25
23.09.2020 05:00:00 15,4 10,4 0 0 N 1016,0 30
23.09.2020 04:00:00 16,9 10,5 4 2 N 1015,8 30
23.09.2020 03:00:00 18,0 10,4 0 0 N 1015,9 30
23.09.2020 02:00:00 20,0 10,1 2 1 ZZW 1015,5 30
23.09.2020 01:00:00 20,4 9,6 0 0 N 1015,5 30
23.09.2020 00:00:00 21,0 9,3 0 0 N 1015,4 30
22.09.2020 23:00:00 21,8 8,9 4 2 W 1014,9 18
22.09.2020 22:00:00 22,6 9,1 13 7 WZW 1014,4 30
22.09.2020 21:00:00 22,9 8,6 13 7 ZW 1013,5 30
22.09.2020 20:00:00 25,5 8,0 11 6 W 1012,3 20

tt = temperatuur
td = dauwpunt
ff = windsnelheid
dd = windrichting
ppp = luchtdruk
vv = zicht

Weerstations in de omgeving